STARLINK-31946, 59940

Orbit data source: Space-Track

STARLINK-31946, 59940 is a payload satellite owned by SpaceX/Seattle (US) in LEO that was launched on Sat, 01 Jun 2024 UTC via an FALCON 9 launch vehicle from the Air Force Eastern Test Range (AFETR). Payload-class satellites include a variety of spacecraft equipped with specific instruments for various scientific and technological missions. These include communications satellites like Starlink; space stations such as the ISS; scientific satellites like the Hubble; Earth observation satellites from companies like Planet Labs, Umbra, and HawkEye 360; GPS; miniature CubeSats for education and research; and military/defense satellites.

Loading next visibility...
Identifier
59940, 2024-106U
Orbit
LEO
Country
Flag of USUS
Related business
Manufacturer
SpaceX/Seattle
Mission
Operational Commercial Communications
Bus & Motor
STARLINK V2M, Unknown motor
Mass
730 kg wet, ~700 kg dry
Launch date (UTC)
2024-06-01 (1 year ago)
Launch vehicle
FALCON 9
Launch site
Air Force Eastern Test Range (AFETR)
Object type
Payload
Rocket body
Debris
Shape & HBR
Box + 2 Pan, 17.7 m
Radar Cross Section
33.884 m², Large (>1 m²)

Expand to show TLE details & history
Last TLE update: 8 hours ago

TLE from 8 hours ago
0 STARLINK-31946
1 59940U 24106U   25300.27089819 -.00002592  00000-0 -84716-4 0  9994
2 59940  43.0012   6.3845 0000311 250.7131 109.3687 15.27579877 70749
Epoch: 2025-10-27T06:30Z
TLE epoch observation values (Epoch: 2025-10-27T06:30:05.603Z)
Latitude
-0.00003°
Longitude
-127.01402°
Altitude
482.896 km
Speed
7.626 km/s
True Right ascension
00h 25m 32s
True Declination
0° 00' 00"
Sunlit
Object was in full shadow at epoch
Visualization orbit readout
Latitude
Unknown
Longitude
Unknown
Altitude
Unknown
Speed
Unknown
Apparent Right ascension
Unknown
Apparent Declination
Unknown
Sunlit
N/A
Visualization observer readout
Local Sidereal Time
10:02:36
Azimuth
Unknown
Elevation
Unknown
Doppler factor
Unknown
Orbital elements
Apogee altitude
485.208 km
Perigee altitude
484.781 km
Semi-major axis
6,863.131 km
Eccentricity
0.00003
Inclination
43.0012°
RAAN
6.3845°
Arg. of periapsis
250.7131°
True anomaly
109.37206°
Mean anomaly
109.3687°
Eccentric anomaly
109.37038°
Mean motion
3.81733 °/min
Orbital period
94.31 mins
BSTAR
-0.000084716
Loading maneuver chart data...
Computing Atmospheric mass density...
Loading historical data...
Loading historical data...
Loading historical data...
Loading historical data...
Loading historical data...
Loading historical data...
Loading historical data...

Documentation

Showing up to 5 results
|